Northfield, Minnesota, United States (55057)
Lat: 44.46N, Lon: 93.16W
Wx Zone: MNZ077
Local Info
Past Weather Observations for Today

NOTE: This archive is for the closest National Weather Service station to Northfield. Information may differ from the station used for current weather conditions.

Click here for Long-term Archive

Time Weather Temperature Dewpoint Humidity Pressure Winds Precip Visibility
17:33
Clear
59°F / 15°C 54°F / 12°C 82% 29.86 in
(1011 mb)
S 3.5 mph
(S 6 kph)
- 7SM
17:14
Clear
61°F / 16°C 54°F / 12°C 77% 29.86 in
(1011 mb)
Calm - 7SM
16:54
Clear
61°F / 16°C 55°F / 13°C 83% 29.83 in
(1010 mb)
S 3.5 mph
(S 6 kph)
- 7SM
16:33
Clear
63°F / 17°C 55°F / 13°C 77% 29.86 in
(1011 mb)
S 3.5 mph
(S 6 kph)
- 7SM
16:14
Clear
64°F / 18°C 55°F / 13°C 73% 29.83 in
(1010 mb)
S 4.6 mph
(S 7 kph)
- 7SM
15:54
Clear
64°F / 18°C 55°F / 13°C 73% 29.86 in
(1011 mb)
SW 4.6 mph
(SW 7 kph)
- 7SM
15:33
Clear
64°F / 18°C 55°F / 13°C 73% 29.83 in
(1010 mb)
SW 5.8 mph
(SW 9 kph)
- 7SM
15:14
Clear
63°F / 17°C 55°F / 13°C 77% 29.83 in
(1010 mb)
SSE 5.8 mph
(SSE 9 kph)
- 7SM
14:53
Mostly Cloudy
63°F / 17°C 55°F / 13°C 77% 29.83 in
(1010 mb)
SSE 5.8 mph
(SSE 9 kph)
- 7SM
14:34
Overcast
61°F / 16°C 55°F / 13°C 83% 29.83 in
(1010 mb)
S 6.9 mph
(S 11 kph)
- 7SM
14:13
Overcast
Hazy
61°F / 16°C 55°F / 13°C 83% 29.83 in
(1010 mb)
S 6.9 mph
(S 11 kph)
- 5SM
13:53
Overcast
Hazy
61°F / 16°C 55°F / 13°C 83% 29.83 in
(1010 mb)
S 6.9 mph
(S 11 kph)
- 5SM
13:34
Overcast
Hazy
59°F / 15°C 55°F / 13°C 88% 29.83 in
(1010 mb)
SW 5.8 mph
(SW 9 kph)
- 5SM
13:14
Overcast
Fog And Mist
59°F / 15°C 55°F / 13°C 88% 29.83 in
(1010 mb)
SSE 5.8 mph
(SSE 9 kph)
- 4SM
12:53
Overcast
Hazy
59°F / 15°C 55°F / 13°C 88% 29.83 in
(1010 mb)
SW 6.9 mph
(SW 11 kph)
- 5SM
12:34
Overcast
Hazy
59°F / 15°C 55°F / 13°C 88% 29.83 in
(1010 mb)
SSE 8.1 mph
(SSE 13 kph)
- 5SM
12:14
Overcast
59°F / 15°C 54°F / 12°C 82% 29.86 in
(1011 mb)
SW 11.5 mph
(SW 19 kph)
- 7SM
11:53
Overcast
61°F / 16°C 54°F / 12°C 77% 29.86 in
(1011 mb)
SSE 9.2 mph
(SSE 15 kph)
- 7SM
11:34
Overcast
61°F / 16°C 54°F / 12°C 77% 29.86 in
(1011 mb)
S 10.4 mph
(S 17 kph)
- 10SM
11:13
Overcast
61°F / 16°C 54°F / 12°C 77% 29.86 in
(1011 mb)
S 8.1 mph
(S 13 kph)
- 10SM
10:54
Overcast
61°F / 16°C 54°F / 12°C 77% 29.89 in
(1012 mb)
S 12.7 mph
(S 20 kph)
- 10SM
10:34
Overcast
61°F / 16°C 54°F / 12°C 77% 29.89 in
(1012 mb)
S 9.2 mph
(S 15 kph)
- 10SM
10:13
Mostly Cloudy
61°F / 16°C 54°F / 12°C 77% 29.89 in
(1012 mb)
S 10.4 mph
(S 17 kph)
- 10SM
09:54
Clear
61°F / 16°C 52°F / 11°C 72% 29.89 in
(1012 mb)
S 9.2 mph
(S 15 kph)
- 10SM
09:34
Partly Cloudy
59°F / 15°C 52°F / 11°C 77% 29.89 in
(1012 mb)
SSE 10.4 mph
(SSE 17 kph)
- 10SM
09:13
Mostly Cloudy
57°F / 14°C 50°F / 10°C 77% 29.89 in
(1012 mb)
SSE 9.2 mph
(SSE 15 kph)
- 10SM
08:54
Mostly Cloudy
57°F / 14°C 50°F / 10°C 77% 29.89 in
(1012 mb)
S 9.2 mph
(S 15 kph)
- 10SM
08:34
Mostly Cloudy
55°F / 13°C 48°F / 9°C 77% 29.89 in
(1012 mb)
S 4.6 mph
(S 7 kph)
- 10SM
08:13
Partly Cloudy
55°F / 13°C 48°F / 9°C 77% 29.89 in
(1012 mb)
SSE 6.9 mph
(SSE 11 kph)
- 10SM
07:54
Clear
54°F / 12°C 48°F / 9°C 82% 29.89 in
(1012 mb)
S 5.8 mph
(S 9 kph)
- 10SM
07:33
Clear
54°F / 12°C 48°F / 9°C 82% 29.89 in
(1012 mb)
S 5.8 mph
(S 9 kph)
- 10SM
07:14
Clear
52°F / 11°C 46°F / 8°C 82% 29.89 in
(1012 mb)
S 4.6 mph
(S 7 kph)
- 10SM
06:54
Clear
52°F / 11°C 46°F / 8°C 82% 29.89 in
(1012 mb)
S 5.8 mph
(S 9 kph)
- 10SM
06:33
Clear
52°F / 11°C 46°F / 8°C 82% 29.89 in
(1012 mb)
S 5.8 mph
(S 9 kph)
- 10SM
06:14
Clear
52°F / 11°C 46°F / 8°C 82% 29.89 in
(1012 mb)
S 8.1 mph
(S 13 kph)
- 10SM
05:54
Clear
52°F / 11°C 46°F / 8°C 82% 29.89 in
(1012 mb)
S 9.2 mph
(S 15 kph)
- 10SM
05:33
Clear
52°F / 11°C 46°F / 8°C 82% 29.92 in
(1013 mb)
S 8.1 mph
(S 13 kph)
- 10SM
05:14
Clear
50°F / 10°C 46°F / 8°C 88% 29.92 in
(1013 mb)
S 6.9 mph
(S 11 kph)
- 10SM
04:54
Clear
50°F / 10°C 45°F / 7°C 82% 29.92 in
(1013 mb)
S 5.8 mph
(S 9 kph)
- 10SM
04:33
Clear
50°F / 10°C 45°F / 7°C 82% 29.92 in
(1013 mb)
S 5.8 mph
(S 9 kph)
- 10SM
04:14
Clear
50°F / 10°C 45°F / 7°C 82% 29.95 in
(1014 mb)
S 4.6 mph
(S 7 kph)
- 10SM
03:53
Clear
48°F / 9°C 45°F / 7°C 87% 29.92 in
(1013 mb)
S 4.6 mph
(S 7 kph)
- 10SM
03:34
Clear
50°F / 10°C 45°F / 7°C 82% 29.95 in
(1014 mb)
S 6.9 mph
(S 11 kph)
- 10SM
03:14
Clear
50°F / 10°C 45°F / 7°C 82% 29.95 in
(1014 mb)
S 6.9 mph
(S 11 kph)
- 10SM
02:53
Clear
48°F / 9°C 45°F / 7°C 87% 29.95 in
(1014 mb)
S 4.6 mph
(S 7 kph)
- 10SM
02:34
Clear
48°F / 9°C 45°F / 7°C 87% 29.95 in
(1014 mb)
S 5.8 mph
(S 9 kph)
- 10SM
02:14
Clear
48°F / 9°C 45°F / 7°C 87% 29.98 in
(1015 mb)
S 4.6 mph
(S 7 kph)
- 10SM
01:53
Clear
48°F / 9°C 45°F / 7°C 87% 29.95 in
(1014 mb)
S 6.9 mph
(S 11 kph)
- 10SM
01:34
Clear
50°F / 10°C 46°F / 8°C 88% 29.98 in
(1015 mb)
S 5.8 mph
(S 9 kph)
- 10SM
01:14
Clear
50°F / 10°C 46°F / 8°C 88% 29.98 in
(1015 mb)
S 5.8 mph
(S 9 kph)
- 10SM
00:53
Clear
50°F / 10°C 46°F / 8°C 88% 29.98 in
(1015 mb)
S 3.5 mph
(S 6 kph)
- 7SM
00:34
Clear
50°F / 10°C 46°F / 8°C 88% 29.98 in
(1015 mb)
S 4.6 mph
(S 7 kph)
- 7SM
00:14
Clear
50°F / 10°C 46°F / 8°C 88% 29.98 in
(1015 mb)
S 3.5 mph
(S 6 kph)
- 7SM
Time Weather Temperature Dewpoint Humidity Pressure Winds Precip Visibility


Weather for websites

WeatherForYou.com, LLC is not responsible for any damages or problems caused by this service. Current weather conditions are obtained from the closest station including government and personal stations which may have varying degrees of accuracy. Weather forecasts are derived from the NOAA NDFD. Like all things, this site belongs to Jesus Christ... He just trusts me to maintain it. If you have any questions or comments email webmaster@weatherforyou.com

Copyright © 2014, WeatherForYou.com LLC. All rights reserved.